{"data":{"norad_id":62232,"epoch":"2026-09-21T15:35:11.345568Z","epoch_age_seconds":78903,"freshness":"FRESH","line1":"1 62232U 24231Q   26264.64943687  .00014792  00000+0  44820-3 0  9997","line2":"2 62232  53.1590  28.5046 0001052  72.2566 287.8551 15.34391073101780","mean_motion":15.34391073,"eccentricity":0.0001052,"inclination_deg":53.159,"raan_deg":28.5046,"arg_perigee_deg":72.2566,"mean_anomaly_deg":287.8551,"bstar":0.0004482,"rev_number":10178,"period_min":93.848304082254,"perigee_km":462.01011407648,"apogee_km":463.44943244557,"semimajor_km":6840.866773261,"source":"CELESTRAK","updated_at":"2026-09-22T09:00:49.564281Z"}}